NDF3PC EDDM-EDDL

Flight info

Callsign NDF3PC
Flight time 1h 0m
Altitude 32000
Route GIVMI1N GIVMI Y101 INBED DCT REKDI DCT LOHRE Z850 ARPEG/N0392F240 Z850 ADEMI T854 DOMUX DOMUX1A
Aircraft A321/M-SDE3FGHIRWY/LB1

Departure

Time 2026-05-05 10:41
Airport Munich Airport (EDDM)

Arrival

Time 2026-05-05 11:41
Airport Düsseldorf Airport (EDDL)
Time Latitude Longitude Altitude Speed Heading
2026-05-05 10:12 48.35246 11.79787 1477 ft 0 kts 83°
2026-05-05 10:30 48.35244 11.79759 1490 ft 4 kts 83°
2026-05-05 10:31 48.35241 11.79719 1460 ft 4 kts 83°
2026-05-05 10:31 48.35236 11.79680 1468 ft 4 kts 68°
2026-05-05 10:31 48.35223 11.79647 1467 ft 4 kts 38°
2026-05-05 10:31 48.35203 11.79634 1468 ft 1 kts 353°
2026-05-05 10:34 48.35211 11.79632 1466 ft 5 kts 352°
2026-05-05 10:34 48.35286 11.79617 1476 ft 15 kts 352°
2026-05-05 10:35 48.35398 11.79596 1473 ft 17 kts 355°
2026-05-05 10:35 48.35521 11.79577 1464 ft 19 kts 354°
2026-05-05 10:35 48.35656 11.79554 1469 ft 20 kts 353°
2026-05-05 10:35 48.35799 11.79528 1465 ft 21 kts 354°
2026-05-05 10:36 48.35950 11.79503 1458 ft 22 kts 354°
2026-05-05 10:36 48.36105 11.79477 1468 ft 23 kts 353°
2026-05-05 10:36 48.36218 11.79535 1462 ft 18 kts 67°
2026-05-05 10:36 48.36235 11.79730 1462 ft 19 kts 83°
2026-05-05 10:37 48.36250 11.79936 1456 ft 20 kts 84°
2026-05-05 10:37 48.36267 11.80151 1462 ft 21 kts 83°
2026-05-05 10:37 48.36284 11.80373 1464 ft 22 kts 83°
2026-05-05 10:37 48.36302 11.80603 1464 ft 23 kts 83°
2026-05-05 10:38 48.36320 11.80841 1463 ft 23 kts 84°
2026-05-05 10:38 48.36339 11.81086 1460 ft 24 kts 83°
2026-05-05 10:38 48.36357 11.81338 1461 ft 25 kts 84°
2026-05-05 10:38 48.36377 11.81597 1460 ft 25 kts 83°
2026-05-05 10:39 48.36397 11.81863 1459 ft 26 kts 89°
2026-05-05 10:39 48.36416 11.82109 1459 ft 23 kts 40°
2026-05-05 10:39 48.36565 11.82115 1458 ft 22 kts 349°
2026-05-05 10:39 48.36669 11.81978 1459 ft 18 kts 290°
2026-05-05 10:40 48.36674 11.81920 1459 ft 0 kts 266°
2026-05-05 10:40 48.36674 11.81919 1459 ft 1 kts 266°
2026-05-05 10:40 48.36659 11.81708 1460 ft 54 kts 263°
2026-05-05 10:40 48.36588 11.80804 1462 ft 118 kts 263°
2026-05-05 10:41 48.36474 11.79315 1471 ft 166 kts 263°
2026-05-05 10:41 48.36342 11.77517 1957 ft 173 kts 264°
2026-05-05 10:41 48.36197 11.75657 2482 ft 188 kts 263°
2026-05-05 10:41 48.36040 11.73575 2759 ft 211 kts 263°
2026-05-05 10:42 48.35751 11.69265 4205 ft 211 kts 266°
2026-05-05 10:42 48.35974 11.66993 4548 ft 230 kts 292°
2026-05-05 10:42 48.36818 11.64955 5225 ft 230 kts 309°
2026-05-05 10:43 48.37881 11.63151 5997 ft 233 kts 313°
2026-05-05 10:43 48.39001 11.61299 6423 ft 251 kts 310°
2026-05-05 10:43 48.40037 11.59048 6719 ft 273 kts 299°
2026-05-05 10:43 48.40939 11.56468 7152 ft 283 kts 296°
2026-05-05 10:44 48.41821 11.53806 7875 ft 286 kts 296°
2026-05-05 10:44 48.42739 11.51140 8679 ft 288 kts 297°
2026-05-05 10:44 48.43709 11.48480 9442 ft 292 kts 298°
2026-05-05 10:44 48.44818 11.45903 10129 ft 296 kts 309°
2026-05-05 10:45 48.46363 11.43837 10782 ft 301 kts 326°
2026-05-05 10:45 48.48275 11.42504 11384 ft 309 kts 342°
2026-05-05 10:45 48.50465 11.41830 11546 ft 333 kts 349°
2026-05-05 10:45 48.52820 11.41210 11724 ft 353 kts 349°
2026-05-05 10:46 48.55270 11.40559 12228 ft 361 kts 349°
2026-05-05 10:46 48.57759 11.39890 12845 ft 366 kts 348°
2026-05-05 10:46 48.60278 11.39209 13467 ft 370 kts 348°
2026-05-05 10:46 48.62823 11.38514 14048 ft 374 kts 348°
2026-05-05 10:47 48.65397 11.37808 14625 ft 377 kts 348°
2026-05-05 10:47 48.67985 11.37059 15192 ft 380 kts 345°
2026-05-05 10:47 48.70493 11.35762 15763 ft 382 kts 333°
2026-05-05 10:47 48.72804 11.33780 16341 ft 383 kts 324°
2026-05-05 10:48 48.74272 11.32275 16707 ft 386 kts 324°
2026-05-05 10:48 48.77239 11.29255 17458 ft 390 kts 324°
2026-05-05 10:48 48.79507 11.26956 18008 ft 394 kts 324°
2026-05-05 10:48 48.81797 11.24640 18504 ft 398 kts 324°
2026-05-05 10:49 48.84159 11.22417 18987 ft 402 kts 331°
2026-05-05 10:49 48.86753 11.20773 19491 ft 407 kts 340°
2026-05-05 10:49 48.88571 11.19861 19834 ft 409 kts 340°
2026-05-05 10:49 48.91281 11.18496 20326 ft 411 kts 340°
2026-05-05 10:50 48.94005 11.17118 20847 ft 414 kts 340°
2026-05-05 10:50 48.96746 11.15725 21354 ft 417 kts 340°
2026-05-05 10:50 48.99505 11.14317 21851 ft 420 kts 340°
2026-05-05 10:50 49.02283 11.12901 22348 ft 422 kts 340°
2026-05-05 10:51 49.05076 11.11477 22821 ft 425 kts 340°
2026-05-05 10:51 49.07891 11.10040 23285 ft 427 kts 340°
2026-05-05 10:51 49.10679 11.08615 23688 ft 430 kts 340°
2026-05-05 10:51 49.13523 11.07158 24083 ft 432 kts 340°
2026-05-05 10:52 49.16381 11.05689 24466 ft 434 kts 340°
2026-05-05 10:52 49.19253 11.04218 24844 ft 436 kts 340°
2026-05-05 10:52 49.22179 11.02720 25235 ft 439 kts 339°
2026-05-05 10:52 49.25076 11.01232 25607 ft 441 kts 339°
2026-05-05 10:53 49.27990 10.99730 25974 ft 443 kts 339°
2026-05-05 10:53 49.30916 10.98217 26342 ft 445 kts 339°
2026-05-05 10:53 49.33849 10.96690 26699 ft 446 kts 338°
2026-05-05 10:53 49.36638 10.94756 27052 ft 445 kts 328°
2026-05-05 10:54 49.39214 10.92143 27408 ft 444 kts 319°
2026-05-05 10:54 49.41508 10.88895 27747 ft 442 kts 309°
2026-05-05 10:54 49.43438 10.85323 28096 ft 442 kts 306°
2026-05-05 10:54 49.45379 10.81626 28452 ft 444 kts 306°
2026-05-05 10:55 49.47327 10.77925 28815 ft 446 kts 306°
2026-05-05 10:55 49.49285 10.74209 29151 ft 448 kts 306°
2026-05-05 10:55 49.51255 10.70476 29471 ft 450 kts 306°
2026-05-05 10:55 49.53226 10.66729 29790 ft 452 kts 305°
2026-05-05 10:56 49.55205 10.62957 30091 ft 453 kts 305°
2026-05-05 10:56 49.57187 10.59167 30380 ft 455 kts 305°
2026-05-05 10:56 49.59174 10.55368 30692 ft 456 kts 305°
2026-05-05 10:56 49.61162 10.51568 31114 ft 454 kts 304°
2026-05-05 10:57 49.63140 10.47785 31528 ft 452 kts 304°
2026-05-05 10:57 49.65109 10.44012 31799 ft 451 kts 304°
2026-05-05 10:57 49.66999 10.40207 31857 ft 439 kts 302°
2026-05-05 10:58 49.70413 10.32554 31842 ft 430 kts 298°
2026-05-05 10:58 49.73674 10.24839 31858 ft 429 kts 298°
2026-05-05 10:59 49.76975 10.17154 31845 ft 429 kts 299°
2026-05-05 10:59 49.80332 10.09514 31851 ft 429 kts 300°
2026-05-05 11:00 49.83703 10.01877 31855 ft 430 kts 300°
2026-05-05 11:00 49.87053 9.94210 31858 ft 430 kts 299°
2026-05-05 11:01 49.90387 9.86521 31858 ft 430 kts 299°
2026-05-05 11:01 49.93719 9.78816 31858 ft 430 kts 299°
2026-05-05 11:02 49.97048 9.71112 31859 ft 430 kts 298°
2026-05-05 11:02 50.00375 9.63386 31869 ft 430 kts 298°
2026-05-05 11:03 50.03698 9.55646 31871 ft 430 kts 298°
2026-05-05 11:03 50.07288 9.48161 31873 ft 437 kts 309°
2026-05-05 11:04 50.11967 9.41999 31874 ft 442 kts 316°
2026-05-05 11:04 50.16741 9.35975 31875 ft 442 kts 316°
2026-05-05 11:05 50.21511 9.29927 31873 ft 442 kts 315°
2026-05-05 11:05 50.26273 9.23867 31876 ft 441 kts 315°
2026-05-05 11:06 50.31028 9.17801 31880 ft 441 kts 315°
2026-05-05 11:06 50.35774 9.11732 31883 ft 441 kts 315°
2026-05-05 11:07 50.40521 9.05665 31883 ft 440 kts 315°
2026-05-05 11:07 50.42889 9.02632 31440 ft 440 kts 315°
2026-05-05 11:07 50.45254 8.99596 30883 ft 438 kts 316°
2026-05-05 11:07 50.47606 8.96571 30347 ft 436 kts 316°
2026-05-05 11:08 50.49949 8.93549 29785 ft 435 kts 316°
2026-05-05 11:08 50.52279 8.90541 29166 ft 433 kts 316°
2026-05-05 11:08 50.54586 8.87615 28570 ft 432 kts 318°
2026-05-05 11:08 50.56956 8.84732 27974 ft 430 kts 319°
2026-05-05 11:09 50.59339 8.81906 27391 ft 428 kts 319°
2026-05-05 11:09 50.61719 8.79105 26818 ft 426 kts 320°
2026-05-05 11:09 50.64088 8.76310 26262 ft 424 kts 320°
2026-05-05 11:09 50.66437 8.73520 25703 ft 422 kts 320°
2026-05-05 11:10 50.68766 8.70730 25168 ft 420 kts 320°
2026-05-05 11:10 50.71080 8.67936 24641 ft 418 kts 320°
2026-05-05 11:10 50.73382 8.65145 24122 ft 416 kts 320°
2026-05-05 11:10 50.75672 8.62361 23613 ft 415 kts 320°
2026-05-05 11:11 50.77957 8.59577 23041 ft 414 kts 320°
2026-05-05 11:11 50.80236 8.56805 22450 ft 413 kts 320°
2026-05-05 11:11 50.82512 8.54038 21868 ft 412 kts 320°
2026-05-05 11:11 50.84780 8.51281 21300 ft 411 kts 320°
2026-05-05 11:12 50.87044 8.48526 20740 ft 410 kts 320°
2026-05-05 11:12 50.89302 8.45776 20175 ft 409 kts 320°
2026-05-05 11:12 50.91553 8.43030 19646 ft 408 kts 320°
2026-05-05 11:12 50.93798 8.40286 19112 ft 407 kts 320°
2026-05-05 11:13 50.96037 8.37547 18598 ft 406 kts 320°
2026-05-05 11:13 50.98269 8.34815 18063 ft 404 kts 320°
2026-05-05 11:13 51.00490 8.32095 17477 ft 402 kts 320°
2026-05-05 11:13 51.02813 8.29623 16897 ft 402 kts 329°
2026-05-05 11:14 51.05250 8.27469 16330 ft 400 kts 329°
2026-05-05 11:14 51.07672 8.25322 15776 ft 397 kts 329°
2026-05-05 11:14 51.10072 8.23182 15232 ft 394 kts 329°
2026-05-05 11:14 51.12454 8.21053 14691 ft 392 kts 329°
2026-05-05 11:15 51.14822 8.18934 14170 ft 389 kts 329°
2026-05-05 11:15 51.17168 8.16830 13642 ft 385 kts 329°
2026-05-05 11:15 51.19491 8.14750 13061 ft 382 kts 329°
2026-05-05 11:15 51.21800 8.12686 12481 ft 378 kts 329°
2026-05-05 11:16 51.24084 8.10644 11926 ft 375 kts 329°
2026-05-05 11:16 51.26347 8.08616 11371 ft 372 kts 329°
2026-05-05 11:16 51.28590 8.06602 10831 ft 368 kts 329°
2026-05-05 11:16 51.30815 8.04602 10293 ft 365 kts 329°
2026-05-05 11:17 51.32993 8.02641 9771 ft 362 kts 329°
2026-05-05 11:17 51.35178 8.00674 9197 ft 359 kts 329°
2026-05-05 11:17 51.37347 7.98717 8626 ft 357 kts 329°
2026-05-05 11:17 51.39499 7.96773 8066 ft 354 kts 329°
2026-05-05 11:18 51.41636 7.94845 7518 ft 351 kts 329°
2026-05-05 11:18 51.43639 7.92658 6963 ft 347 kts 317°
2026-05-05 11:18 51.45197 7.89764 6432 ft 341 kts 301°
2026-05-05 11:18 51.46210 7.86370 5874 ft 336 kts 286°
2026-05-05 11:19 51.46644 7.82722 5311 ft 332 kts 272°
2026-05-05 11:19 51.46504 7.79057 4763 ft 328 kts 257°
2026-05-05 11:19 51.45920 7.75531 4213 ft 326 kts 253°
2026-05-05 11:19 51.45306 7.72094 4000 ft 314 kts 253°
2026-05-05 11:20 51.44720 7.68824 3999 ft 296 kts 253°
2026-05-05 11:20 51.44165 7.65750 4005 ft 279 kts 253°
2026-05-05 11:20 51.43639 7.62847 4004 ft 266 kts 253°
2026-05-05 11:20 51.43127 7.60013 4008 ft 265 kts 253°
2026-05-05 11:21 51.42618 7.57183 4006 ft 264 kts 253°
2026-05-05 11:21 51.42045 7.54386 4010 ft 264 kts 246°
2026-05-05 11:21 51.41205 7.51774 4012 ft 264 kts 237°
2026-05-05 11:21 51.40189 7.49333 4008 ft 263 kts 235°
2026-05-05 11:22 51.39172 7.46895 4009 ft 263 kts 235°
2026-05-05 11:22 51.38157 7.44453 4008 ft 263 kts 235°
2026-05-05 11:22 51.37156 7.42047 4007 ft 263 kts 236°
2026-05-05 11:22 51.36141 7.39608 4008 ft 263 kts 236°
2026-05-05 11:23 51.35125 7.37166 4009 ft 264 kts 236°
2026-05-05 11:23 51.34112 7.34725 4004 ft 263 kts 236°
2026-05-05 11:23 51.33098 7.32285 4007 ft 264 kts 236°
2026-05-05 11:23 51.32081 7.29844 4004 ft 264 kts 236°
2026-05-05 11:24 51.31060 7.27408 4007 ft 264 kts 235°
2026-05-05 11:24 51.30040 7.24978 4004 ft 264 kts 235°
2026-05-05 11:24 51.29016 7.22543 4009 ft 264 kts 235°
2026-05-05 11:24 51.27992 7.20112 4004 ft 264 kts 235°
2026-05-05 11:25 51.27126 7.17539 4003 ft 264 kts 251°
2026-05-05 11:25 51.26860 7.14642 4005 ft 266 kts 272°
2026-05-05 11:25 51.27248 7.11767 4004 ft 267 kts 292°
2026-05-05 11:25 51.28247 7.09274 4004 ft 268 kts 313°
2026-05-05 11:26 51.29738 7.07496 4004 ft 269 kts 334°
2026-05-05 11:26 51.31525 7.06675 4004 ft 266 kts 355°
2026-05-05 11:26 51.33297 7.06899 4002 ft 250 kts 16°
2026-05-05 11:26 51.34838 7.08001 4000 ft 236 kts 35°
2026-05-05 11:27 51.36029 7.09749 4008 ft 234 kts 53°
2026-05-05 11:27 51.36826 7.12015 4010 ft 234 kts 72°
2026-05-05 11:27 51.37240 7.14532 4025 ft 235 kts 76°
2026-05-05 11:27 51.37770 7.16979 4001 ft 229 kts 68°
2026-05-05 11:28 51.38462 7.19243 4019 ft 225 kts 61°
2026-05-05 11:28 51.39314 7.21347 4027 ft 226 kts 55°
2026-05-05 11:28 51.40265 7.23349 4008 ft 226 kts 54°
2026-05-05 11:28 51.41215 7.25351 4002 ft 225 kts 54°
2026-05-05 11:29 51.42162 7.27352 4004 ft 225 kts 54°
2026-05-05 11:29 51.43107 7.29354 4003 ft 226 kts 54°
2026-05-05 11:29 51.44055 7.31360 3997 ft 226 kts 54°
2026-05-05 11:29 51.44998 7.33371 3939 ft 226 kts 54°
2026-05-05 11:30 51.45937 7.35387 3885 ft 225 kts 54°
2026-05-05 11:30 51.46873 7.37398 3846 ft 225 kts 54°
2026-05-05 11:30 51.47919 7.39256 3785 ft 226 kts 39°
2026-05-05 11:30 51.49306 7.40410 3732 ft 226 kts 17°
2026-05-05 11:31 51.50861 7.40667 3679 ft 226 kts 355°
2026-05-05 11:31 51.52361 7.39988 3633 ft 225 kts 333°
2026-05-05 11:31 51.53643 7.38567 3589 ft 224 kts 319°
2026-05-05 11:31 51.54582 7.36601 3534 ft 223 kts 295°
2026-05-05 11:32 51.54913 7.34194 3482 ft 222 kts 269°
2026-05-05 11:32 51.54574 7.31800 3439 ft 221 kts 244°
2026-05-05 11:32 51.53712 7.29768 3385 ft 221 kts 232°
2026-05-05 11:32 51.52786 7.27798 3335 ft 221 kts 233°
2026-05-05 11:33 51.51863 7.25830 3281 ft 221 kts 232°
2026-05-05 11:33 51.50932 7.23872 3234 ft 221 kts 232°
2026-05-05 11:33 51.50006 7.21903 3176 ft 221 kts 233°
2026-05-05 11:33 51.49081 7.19928 3073 ft 221 kts 233°
2026-05-05 11:34 51.48158 7.17956 3001 ft 221 kts 233°
2026-05-05 11:34 51.47233 7.15983 3003 ft 221 kts 233°
2026-05-05 11:34 51.46311 7.14016 3009 ft 221 kts 233°
2026-05-05 11:34 51.45686 7.12685 3008 ft 221 kts 233°
2026-05-05 11:35 51.44830 7.10862 2997 ft 191 kts 233°
2026-05-05 11:35 51.44061 7.09225 2999 ft 175 kts 232°
2026-05-05 11:35 51.43343 7.07698 2998 ft 169 kts 232°
2026-05-05 11:35 51.42651 7.06228 3014 ft 167 kts 232°
2026-05-05 11:36 51.41956 7.04752 3028 ft 159 kts 232°
2026-05-05 11:36 51.41316 7.03393 3011 ft 155 kts 232°
2026-05-05 11:36 51.40655 7.01991 3006 ft 153 kts 232°
2026-05-05 11:36 51.40014 7.00632 3008 ft 153 kts 232°
2026-05-05 11:37 51.39383 6.99293 3010 ft 153 kts 232°
2026-05-05 11:37 51.38743 6.97938 3007 ft 153 kts 232°
2026-05-05 11:37 51.38092 6.96561 2934 ft 153 kts 232°
2026-05-05 11:37 51.37458 6.95219 2788 ft 153 kts 232°
2026-05-05 11:38 51.36806 6.93839 2586 ft 154 kts 232°
2026-05-05 11:38 51.36161 6.92476 2396 ft 154 kts 232°
2026-05-05 11:38 51.35522 6.91125 2184 ft 155 kts 233°
2026-05-05 11:38 51.34868 6.89744 1978 ft 156 kts 233°
2026-05-05 11:39 51.34196 6.88326 1762 ft 159 kts 234°
2026-05-05 11:39 51.33538 6.86938 1545 ft 159 kts 234°
2026-05-05 11:39 51.32872 6.85534 1333 ft 157 kts 233°
2026-05-05 11:39 51.32202 6.84122 1111 ft 157 kts 234°
2026-05-05 11:40 51.31547 6.82743 898 ft 155 kts 236°
2026-05-05 11:40 51.30903 6.81386 672 ft 154 kts 236°
2026-05-05 11:40 51.30267 6.80048 470 ft 152 kts 236°
2026-05-05 11:40 51.29619 6.78686 268 ft 151 kts 236°
2026-05-05 11:41 51.29003 6.77387 141 ft 138 kts 233°
2026-05-05 11:41 51.28590 6.76521 136 ft 63 kts 232°
2026-05-05 11:41 51.28405 6.76144 128 ft 38 kts 226°
2026-05-05 11:41 51.28254 6.76051 134 ft 11 kts 179°
2026-05-05 11:42 51.28222 6.76062 134 ft 1 kts 158°
2026-05-05 11:42 51.28216 6.76067 134 ft 1 kts 152°
2026-05-05 11:42 51.28196 6.76125 133 ft 12 kts 91°
2026-05-05 11:42 51.28177 6.76257 134 ft 13 kts 134°
2026-05-05 11:43 51.28134 6.76351 133 ft 0 kts 122°
2026-05-05 11:43 51.28127 6.76368 133 ft 4 kts 124°
2026-05-05 11:43 51.28074 6.76440 126 ft 15 kts 146°
2026-05-05 11:43 51.28036 6.76486 129 ft 3 kts 112°
2026-05-05 11:44 51.28035 6.76516 129 ft 0 kts 86°